Weather History for KCBK - May, 2013

Change the Weather History Date:

Friday, May 24, 2013

  Actual Average (KGLD) Record (KGLD)
Temperature  
Mean Temperature 70 °F 62 °F  
Max Temperature 84 °F 75 °F 96 °F (1911)
Min Temperature 57 °F 49 °F 34 °F (2002)
Degree Days  
Heating Degree Days 0 5  
Month to date heating degree days 185  
Since 1 July heating degree days 5840  
Cooling Degree Days 6 2  
Month to date cooling degree days 25  
Year to date cooling degree days 29  
Growing Degree Days 20 (Base 50)    
Moisture  
Dew Point 58 °F    
Average Humidity 74    
Maximum Humidity 94    
Minimum Humidity 40    
Precipitation  
Precipitation 0.00 in 0.10 in 1.50 in (2011)
Month to date precipitation 2.14  
Year to date precipitation 5.67  
Snow  
Snow 0.00 in 0.00 in - ()
Month to date snowfall 0.5  
Since 1 July snowfall 35.5  
Snow Depth -    
Sea Level Pressure  
Sea Level Pressure 30.05 in    
Wind  
Wind Speed 22 mph (SSE)    
Max Wind Speed 37 mph    
Max Gust Speed 51 mph    
Visibility 10 miles    
Events      
T = Trace of Precipitation, MM = Missing Value Source: NWS Daily Summary

Daily Weather History Graph

Daily Weather History Graph

Search for Another Location

Airport or City:

Trip Planner

Search our weather history database for the weather conditions in past years. The results will help you decide how hot, cold, wet, or windy it might be!

Date:

Astronomy

May. 24, 2013 Rise Set
Actual Time 6:23 AM CDT 8:59 PM CDT
Civil Twilight 5:52 AM CDT 9:30 PM CDT
Nautical Twilight 5:13 AM CDT 10:09 PM CDT
Astronomical Twilight 4:29 AM CDT 10:53 PM CDT
Moon 8:43 PM CDT (5/24) 5:56 AM CDT (5/24)
Length of Visible Light 15h 38m
Length of Day
14h 36m
Full, 100% of the Moon is Illuminated
May 24
Full
May 24
Full
May 31
Last Quarter
Jun 8
New
Jun 16
First Quarter

Hourly Weather History & Observations

Time (CDT) Temp. Heat Index Dew Point Humidity Pressure Visibility Wind Dir Wind Speed Gust Speed Precip Events Conditions
12:35 AM 59.0 °F - 53.6 °F 82% 30.15 in 10.0 mi ESE 17.3 mph - N/A   Overcast
12:55 AM 57.2 °F - 53.6 °F 88% 30.15 in 10.0 mi SE 16.1 mph - N/A   Overcast
1:15 AM 57.2 °F - 53.6 °F 88% 30.15 in 10.0 mi ESE 17.3 mph - N/A   Overcast
1:35 AM 59.0 °F - 53.6 °F 82% 30.15 in 10.0 mi SE 17.3 mph - N/A   Overcast
1:55 AM 59.0 °F - 53.6 °F 82% 30.15 in 10.0 mi SE 18.4 mph 24.2 mph N/A   Overcast
2:15 AM 59.0 °F - 53.6 °F 82% 30.15 in 10.0 mi SE 19.6 mph - N/A   Overcast
2:35 AM 59.0 °F - 53.6 °F 82% 30.15 in 10.0 mi SE 18.4 mph - N/A   Overcast
2:55 AM 59.0 °F - 55.4 °F 88% 30.15 in 10.0 mi SE 17.3 mph 23.0 mph N/A   Overcast
3:15 AM 57.2 °F - 55.4 °F 94% 30.14 in 10.0 mi SE 18.4 mph - N/A   Overcast
3:35 AM 59.0 °F - 55.4 °F 88% 30.13 in 10.0 mi SE 17.3 mph 25.3 mph N/A   Overcast
3:55 AM 59.0 °F - 55.4 °F 88% 30.13 in 10.0 mi SE 19.6 mph 25.3 mph N/A   Overcast
4:15 AM 59.0 °F - 55.4 °F 88% 30.12 in 10.0 mi SE 23.0 mph 26.5 mph N/A   Overcast
4:35 AM 59.0 °F - 55.4 °F 88% 30.11 in 10.0 mi SE 19.6 mph 27.6 mph N/A   Overcast
4:55 AM 59.0 °F - 55.4 °F 88% 30.11 in 10.0 mi SE 21.9 mph 26.5 mph N/A   Overcast
5:15 AM 59.0 °F - 55.4 °F 88% 30.11 in 10.0 mi SE 19.6 mph - N/A   Overcast
5:35 AM 59.0 °F - 55.4 °F 88% 30.11 in 10.0 mi SE 21.9 mph 27.6 mph N/A   Overcast
5:55 AM 57.2 °F - 55.4 °F 94% 30.10 in 10.0 mi SE 21.9 mph 26.5 mph N/A   Overcast
6:15 AM 57.2 °F - 55.4 °F 94% 30.11 in 10.0 mi SE 19.6 mph 25.3 mph N/A   Overcast
6:35 AM 57.2 °F - 55.4 °F 94% 30.11 in 10.0 mi SE 23.0 mph 28.8 mph N/A   Overcast
6:55 AM 57.2 °F - 55.4 °F 94% 30.12 in 10.0 mi SE 18.4 mph 24.2 mph N/A   Overcast
7:15 AM 57.2 °F - 55.4 °F 94% 30.12 in 10.0 mi SE 20.7 mph 28.8 mph N/A   Overcast
7:35 AM 57.2 °F - 55.4 °F 94% 30.13 in 7.0 mi SE 24.2 mph 28.8 mph N/A   Overcast
7:55 AM 57.2 °F - 55.4 °F 94% 30.14 in 10.0 mi SE 21.9 mph - N/A   Overcast
8:15 AM 57.2 °F - 55.4 °F 94% 30.13 in 10.0 mi SE 23.0 mph 33.4 mph N/A   Overcast
8:35 AM 57.2 °F - 55.4 °F 94% 30.13 in 10.0 mi SE 21.9 mph - N/A   Overcast
8:55 AM 59.0 °F - 55.4 °F 88% 30.13 in 10.0 mi SSE 20.7 mph 27.6 mph N/A   Overcast
9:15 AM 59.0 °F - 55.4 °F 88% 30.13 in 10.0 mi SSE 24.2 mph 29.9 mph N/A   Overcast
9:35 AM 59.0 °F - 55.4 °F 88% 30.12 in 10.0 mi SSE 24.2 mph 28.8 mph N/A   Overcast
9:55 AM 60.8 °F - 55.4 °F 82% 30.12 in 10.0 mi SSE 27.6 mph 38.0 mph N/A   Overcast
10:15 AM 62.6 °F - 57.2 °F 82% 30.11 in 10.0 mi SSE 27.6 mph 35.7 mph N/A   Overcast
10:35 AM 62.6 °F - 57.2 °F 82% 30.11 in 10.0 mi SSE 27.6 mph 38.0 mph N/A   Overcast
10:55 AM 62.6 °F - 59.0 °F 88% 30.11 in 10.0 mi South 25.3 mph 29.9 mph N/A   Overcast
11:15 AM 62.6 °F - 59.0 °F 88% 30.10 in 10.0 mi South 23.0 mph 32.2 mph N/A   Overcast
11:35 AM 66.2 °F - 59.0 °F 78% 30.09 in 10.0 mi South 23.0 mph 33.4 mph N/A   Overcast
11:55 AM 69.8 °F - 60.8 °F 73% 30.09 in 10.0 mi SSE 25.3 mph 31.1 mph N/A   Mostly Cloudy
12:15 PM 69.8 °F - 60.8 °F 73% 30.08 in 10.0 mi SSE 26.5 mph 34.5 mph N/A   Overcast
12:35 PM 71.6 °F - 60.8 °F 69% 30.08 in 10.0 mi South 25.3 mph 33.4 mph N/A   Overcast
12:55 PM 73.4 °F - 60.8 °F 65% 30.07 in 10.0 mi South 24.2 mph 32.2 mph N/A   Overcast
1:15 PM 73.4 °F - 59.0 °F 61% 30.07 in 10.0 mi South 21.9 mph 35.7 mph N/A   Scattered Clouds
1:35 PM 75.2 °F - 60.8 °F 61% 30.06 in 10.0 mi South 25.3 mph 32.2 mph N/A   Scattered Clouds
1:55 PM 77.0 °F - 60.8 °F 57% 30.05 in 10.0 mi South 21.9 mph 35.7 mph N/A   Scattered Clouds
2:15 PM 77.0 °F - 60.8 °F 57% 30.04 in 10.0 mi SSE 20.7 mph 33.4 mph N/A   Mostly Cloudy
2:35 PM 78.8 °F - 60.8 °F 54% 30.04 in 10.0 mi SSE 27.6 mph 38.0 mph N/A   Scattered Clouds
2:55 PM 78.8 °F - 60.8 °F 54% 30.02 in 10.0 mi SSE 24.2 mph 36.8 mph N/A   Scattered Clouds
3:15 PM 80.6 °F 81.5 °F 60.8 °F 51% 30.00 in 10.0 mi SSE 29.9 mph 36.8 mph N/A   Clear
3:35 PM 82.4 °F 82.5 °F 59.0 °F 45% 29.99 in 5.0 mi SSE 32.2 mph 41.4 mph N/A   Haze
3:55 PM 82.4 °F 82.5 °F 59.0 °F 45% 29.99 in 7.0 mi SSE 32.2 mph 43.7 mph N/A   Clear
4:15 PM 82.4 °F 82.5 °F 59.0 °F 45% 29.99 in 7.0 mi SSE 34.5 mph 42.6 mph N/A   Clear
4:35 PM 84.2 °F 83.8 °F 59.0 °F 42% 29.97 in 10.0 mi South 27.6 mph 39.1 mph N/A   Clear
4:55 PM 84.2 °F 83.5 °F 57.2 °F 40% 29.96 in 10.0 mi South 26.5 mph 40.3 mph N/A   Clear
5:15 PM 84.2 °F 83.5 °F 57.2 °F 40% 29.95 in 7.0 mi South 28.8 mph 41.4 mph N/A   Scattered Clouds
5:35 PM 84.2 °F 83.5 °F 57.2 °F 40% 29.95 in 10.0 mi SSE 24.2 mph 39.1 mph N/A   Clear
5:55 PM 82.4 °F 82.0 °F 57.2 °F 42% 29.95 in 10.0 mi SSE 29.9 mph 40.3 mph N/A   Clear
6:15 PM 82.4 °F 82.5 °F 59.0 °F 45% 29.94 in 10.0 mi SSE 24.2 mph 36.8 mph N/A   Clear
6:35 PM 80.6 °F 81.1 °F 59.0 °F 48% 29.93 in 10.0 mi SSE 31.1 mph 38.0 mph N/A   Clear
6:55 PM 80.6 °F 81.1 °F 59.0 °F 48% 29.91 in 10.0 mi SSE 28.8 mph 36.8 mph N/A   Clear
7:15 PM 80.6 °F 81.1 °F 59.0 °F 48% 29.91 in 10.0 mi SSE 26.5 mph 34.5 mph N/A   Clear
7:35 PM 80.6 °F 81.1 °F 59.0 °F 48% 29.92 in 10.0 mi SSE 25.3 mph 32.2 mph N/A   Clear
7:55 PM 78.8 °F - 59.0 °F 51% 29.92 in 10.0 mi SE 28.8 mph 33.4 mph N/A   Clear
8:15 PM 75.2 °F - 64.4 °F 69% 29.91 in 5.0 mi SSE 36.8 mph 50.6 mph N/A   Haze
8:35 PM 73.4 °F - 64.4 °F 73% 29.95 in 10.0 mi SE 23.0 mph 34.5 mph N/A   Scattered Clouds
8:55 PM 73.4 °F - 64.4 °F 73% 29.96 in 10.0 mi ESE 13.8 mph 24.2 mph N/A   Mostly Cloudy
9:15 PM 73.4 °F - 62.6 °F 69% 29.95 in 10.0 mi ESE 16.1 mph - N/A   Scattered Clouds
9:35 PM 71.6 °F - 64.4 °F 78% 29.95 in 10.0 mi ESE 16.1 mph 20.7 mph N/A   Clear
9:55 PM 69.8 °F - 64.4 °F 83% 29.94 in 10.0 mi SE 16.1 mph 20.7 mph N/A   Clear
10:15 PM 69.8 °F - 64.4 °F 83% 29.95 in 10.0 mi SE 19.6 mph 24.2 mph N/A   Clear
10:35 PM 69.8 °F - 64.4 °F 83% 29.95 in 10.0 mi SE 20.7 mph - N/A   Clear
10:55 PM 69.8 °F - 64.4 °F 83% 29.96 in 10.0 mi SSE 24.2 mph 28.8 mph N/A   Clear
11:15 PM 71.6 °F - 66.2 °F 83% 29.96 in 10.0 mi SSE 27.6 mph 34.5 mph N/A   Clear
11:35 PM 69.8 °F - 68.0 °F 94% 29.96 in 10.0 mi SSE 27.6 mph 34.5 mph N/A   Clear
11:55 PM 69.8 °F - 68.0 °F 94% 29.96 in 10.0 mi SSE 25.3 mph 35.7 mph N/A   Clear